Weather History for Charlevoix, MI

Change the Weather History Date:

Friday, January 11, 2013

  Actual Average Record
Temperature  
Mean Temperature 39 °F -  
Max Temperature 44 °F 31 °F 51 °F (2012)
Min Temperature 34 °F 24 °F 1 °F (2009)
Degree Days  
Heating Degree Days 26    
Moisture  
Dew Point 38 °F    
Average Humidity 95    
Maximum Humidity 99    
Minimum Humidity 55    
Precipitation  
Precipitation 0.00 in - - ()
Sea Level Pressure  
Sea Level Pressure 29.77 in    
Wind  
Wind Speed 8 mph (SSE)    
Max Wind Speed 13 mph    
Max Gust Speed 18 mph    
Visibility 5 miles    
Events Rain , Snow    
Averages and records for this station are not official NWS values.
T = Trace of Precipitation, MM = Missing Value Source: NWS Daily Summary

Daily Weather History Graph

Daily Weather History Graph

Search for Another Location

Airport:

Trip Planner

Search our weather history database for the weather conditions in past years. The results will help you decide how hot, cold, wet, or windy it might be!

Date:

Astronomy

Jan. 11, 2013 Rise Set
Actual Time 8:18 AM EST 5:20 PM EST
Civil Twilight 7:45 AM EST 5:53 PM EST
Nautical Twilight 7:08 AM EST 6:30 PM EST
Astronomical Twilight 6:33 AM EST 7:05 PM EST
Moon 7:48 AM EST (1/11) 5:40 PM EST (1/11)
Length of Visible Light 10h 08m
Length of Day
9h 01m
Waning Crescent, 0% of the Moon is Illuminated
Jan 11
Waning Crescent
Jan 11
New
Jan 18
First Quarter
Jan 26
Full
Feb 3
Last Quarter

Hourly Weather History & Observations

Time (EST) Temp. Windchill Dew Point Humidity Pressure Visibility Wind Dir Wind Speed Gust Speed Precip Events Conditions
12:15 AM 38.7 °F 30.9 °F 23.5 °F 55% 30.08 in 10.0 mi SE 12.7 mph 18.4 mph N/A   Mostly Cloudy
12:55 AM 37.0 °F 28.9 °F 27.1 °F 67% 30.06 in 10.0 mi SE 12.7 mph 18.4 mph N/A   Drizzle
1:15 AM 36.0 °F 27.5 °F 28.8 °F 75% 30.03 in 10.0 mi SE 12.7 mph 17.3 mph N/A Rain Light Rain
1:35 AM 35.4 °F 27.8 °F 30.4 °F 82% 30.02 in 4.0 mi SE 10.4 mph - N/A   Overcast
1:55 AM 34.7 °F 26.4 °F 32.0 °F 90% 30.02 in 3.0 mi SE 11.5 mph 17.3 mph N/A Snow Light Snow
2:15 AM 34.7 °F 26.4 °F 33.1 °F 94% 30.01 in 1.8 mi SE 11.5 mph - N/A Snow Light Snow
2:35 AM 35.1 °F 26.9 °F 33.8 °F 95% 30.00 in 4.0 mi ESE 11.5 mph - N/A Rain Rain
2:55 AM 35.1 °F 26.9 °F 34.0 °F 96% 29.97 in 3.0 mi ESE 11.5 mph - N/A Rain Light Rain
3:15 AM 35.6 °F 28.6 °F 34.5 °F 96% 29.96 in 3.0 mi ESE 9.2 mph - N/A   Overcast
3:35 AM 36.0 °F 28.5 °F 34.7 °F 95% 29.94 in 7.0 mi SE 10.4 mph - N/A Rain Rain
3:55 AM 36.1 °F 28.2 °F 34.7 °F 94% 29.93 in 5.0 mi SE 11.5 mph - N/A Rain Light Rain
4:14 AM 36.0 °F 29.6 °F 34.3 °F 94% 29.91 in 5.0 mi SE 8.1 mph - N/A Rain Light Rain
4:35 AM 36.0 °F 29.6 °F 34.7 °F 95% 29.89 in 7.0 mi SE 8.1 mph - N/A Rain Rain
4:54 AM 36.0 °F 31.1 °F 34.7 °F 95% 29.87 in 7.0 mi SE 5.8 mph - N/A Rain Light Rain
5:15 AM 36.0 °F 31.1 °F 34.9 °F 96% 29.86 in 5.0 mi SE 5.8 mph - N/A Rain Rain
5:34 AM 36.0 °F 31.1 °F 35.1 °F 97% 29.84 in 5.0 mi ESE 5.8 mph - N/A   Drizzle
5:55 AM 36.0 °F 32.1 °F 35.1 °F 97% 29.82 in 10.0 mi ESE 4.6 mph - N/A   Overcast
6:14 AM 36.5 °F 31.0 °F 35.6 °F 97% 29.80 in 7.0 mi ESE 6.9 mph - N/A Rain Light Rain
6:35 AM 36.7 °F 29.9 °F 35.8 °F 97% 29.78 in 10.0 mi SE 9.2 mph - N/A   Overcast
7:15 AM 37.4 °F 30.3 °F 36.0 °F 95% 29.76 in 10.0 mi SE 10.4 mph - N/A   Light Drizzle
7:34 AM 37.4 °F 30.8 °F 36.1 °F 95% 29.75 in 10.0 mi SE 9.2 mph - N/A   Light Drizzle
7:55 AM 37.8 °F 35.3 °F 36.5 °F 95% 29.76 in 10.0 mi SE 3.5 mph - N/A   Overcast
8:15 AM 37.8 °F 34.2 °F 36.7 °F 96% 29.74 in 7.0 mi East 4.6 mph - N/A   Overcast
8:35 AM 37.0 °F 33.3 °F 36.5 °F 98% 29.75 in 3.0 mi North 4.6 mph - N/A   Overcast
8:55 AM 37.0 °F 34.5 °F 36.5 °F 98% 29.74 in 7.0 mi North 3.5 mph - N/A   Overcast
9:15 AM 37.4 °F - 36.7 °F 97% 29.74 in 5.0 mi Calm Calm - N/A   Overcast
9:35 AM 37.4 °F - 36.7 °F 97% 29.74 in 3.0 mi Calm Calm - N/A   Overcast
9:55 AM 36.7 °F - 36.5 °F 99% 29.74 in 1.8 mi Calm Calm - N/A   Overcast
10:15 AM 37.4 °F - 36.9 °F 98% 29.74 in 1.5 mi Calm Calm - N/A   Drizzle
10:35 AM 37.2 °F - 36.7 °F 98% 29.74 in 0.8 mi Calm Calm - N/A   Drizzle
10:55 AM 37.4 °F - 37.0 °F 99% 29.74 in 1.0 mi Calm Calm - N/A   Light Drizzle
11:15 AM 37.6 °F - 37.4 °F 99% 29.73 in 0.8 mi Calm Calm - N/A   Overcast
11:35 AM 38.3 °F 35.9 °F 37.8 °F 98% 29.72 in 1.0 mi SE 3.5 mph - N/A   Overcast
11:55 AM 39.2 °F 37.0 °F 38.7 °F 98% 29.70 in 1.5 mi ESE 3.5 mph - N/A   Overcast
12:15 PM 39.6 °F 37.4 °F 39.2 °F 99% 29.69 in 2.5 mi SSE 3.5 mph - N/A   Overcast
12:35 PM 40.1 °F 38.0 °F 39.9 °F 99% 29.68 in 7.0 mi SSE 3.5 mph - N/A   Overcast
12:55 PM 40.5 °F 36.5 °F 40.1 °F 99% 29.67 in 10.0 mi SSE 5.8 mph - N/A   Overcast
1:15 PM 40.5 °F 36.5 °F 39.7 °F 97% 29.67 in 10.0 mi SSE 5.8 mph - N/A   Overcast
1:35 PM 40.5 °F 36.5 °F 39.6 °F 97% 29.66 in 10.0 mi SSE 5.8 mph - N/A   Overcast
1:55 PM 40.6 °F 36.7 °F 39.7 °F 97% 29.66 in 5.0 mi SSE 5.8 mph - N/A Rain Light Rain
2:15 PM 40.8 °F 36.2 °F 39.9 °F 97% 29.66 in 5.0 mi SSE 6.9 mph - N/A   Overcast
3:14 PM 41.9 °F 38.2 °F 41.0 °F 97% 29.66 in 5.0 mi SE 5.8 mph - N/A   Overcast
3:35 PM 42.3 °F 38.6 °F 41.5 °F 97% 29.66 in 7.0 mi South 5.8 mph - N/A   Overcast
3:55 PM 42.8 °F 40.1 °F 41.9 °F 97% 29.67 in 7.0 mi South 4.6 mph - N/A   Overcast
4:14 PM 43.7 °F 39.7 °F 43.0 °F 97% 29.68 in 5.0 mi SSW 6.9 mph - N/A   Overcast
4:35 PM 43.7 °F 39.7 °F 43.0 °F 97% 29.69 in 1.8 mi SW 6.9 mph 16.1 mph N/A   Overcast
4:55 PM 43.7 °F 38.6 °F 43.2 °F 98% 29.70 in 1.0 mi SW 9.2 mph - N/A   Overcast
5:15 PM 43.7 °F 41.1 °F 43.0 °F 97% 29.70 in 1.5 mi SW 4.6 mph - N/A   Overcast
5:35 PM 43.5 °F 38.9 °F 43.0 °F 98% 29.70 in 1.8 mi SW 8.1 mph - N/A   Overcast
5:55 PM 43.3 °F 37.2 °F 43.0 °F 99% 29.71 in 2.5 mi SW 11.5 mph - N/A   Overcast
6:15 PM 43.2 °F 37.4 °F 42.8 °F 99% 29.70 in 4.0 mi SSW 10.4 mph 16.1 mph N/A   Overcast
6:35 PM 43.7 °F 38.1 °F 43.2 °F 98% 29.70 in 5.0 mi SSW 10.4 mph 18.4 mph N/A   Overcast
6:55 PM 43.7 °F 39.1 °F 43.0 °F 97% 29.72 in 1.8 mi SSW 8.1 mph - N/A   Overcast
7:14 PM 43.2 °F 37.9 °F 42.8 °F 99% 29.72 in 1.5 mi SSW 9.2 mph - N/A   Overcast
7:35 PM 43.2 °F 37.4 °F 42.8 °F 99% 29.72 in 3.0 mi SSW 10.4 mph 16.1 mph N/A   Overcast
7:55 PM 42.8 °F 36.6 °F 42.3 °F 98% 29.73 in 4.0 mi SSW 11.5 mph - N/A   Overcast
8:15 PM 42.8 °F 37.0 °F 42.3 °F 98% 29.73 in 7.0 mi SSW 10.4 mph 18.4 mph N/A   Overcast
8:34 PM 43.0 °F 37.2 °F 42.4 °F 98% 29.73 in 7.0 mi SSW 10.4 mph - N/A   Overcast
8:55 PM 43.2 °F 39.7 °F 42.4 °F 97% 29.72 in 7.0 mi South 5.8 mph - N/A   Overcast
9:14 PM 43.2 °F 39.0 °F 42.4 °F 97% 29.73 in 7.0 mi South 6.9 mph - N/A   Overcast
9:35 PM 43.7 °F 40.3 °F 42.8 °F 97% 29.74 in 7.0 mi SSW 5.8 mph - N/A   Overcast
9:54 PM 43.9 °F 39.3 °F 43.0 °F 97% 29.72 in 5.0 mi South 8.1 mph - N/A   Overcast
10:15 PM 44.2 °F 39.2 °F 43.3 °F 97% 29.72 in 4.0 mi South 9.2 mph - N/A   Overcast
10:35 PM 44.6 °F 40.2 °F 43.7 °F 97% 29.72 in 3.0 mi South 8.1 mph - N/A   Overcast
10:55 PM 44.2 °F 41.0 °F 43.2 °F 96% 29.72 in 7.0 mi South 5.8 mph - N/A   Overcast
11:15 PM 44.6 °F 40.7 °F 43.7 °F 97% 29.72 in 7.0 mi South 6.9 mph - N/A   Overcast
11:35 PM 44.6 °F 39.7 °F 43.3 °F 95% 29.71 in 7.0 mi SSE 9.2 mph - N/A   Overcast
11:55 PM 44.1 °F 40.8 °F 43.0 °F 96% 29.70 in 7.0 mi SSE 5.8 mph - N/A   Overcast